Location: ??????
(36.0418°N, 43.6351°E)
Time: 05:38:26
(UTC+00:00)

SeaSat 1 - Pass Details

Date: 07 March 2021
Orbit: 744 x 747 km, 108.0° (Epoch: 20 April)

Event Time Altitude Azimuth Distance (km) Brightness Sun altitude
Rises 02:57:11 0° 172° (S) 3,166 5.8 -7.0°
Reaches altitude 10° 02:59:33 10° 179° (S) 2,247 5.0 -6.5°
Maximum altitude 03:04:10 41° 250° (WSW) 1,062 2.9 -5.6°
Drops below altitude 10° 03:08:48 10° 320° (NW) 2,263 4.5 -4.6°
Sets 03:11:12 0° 328° (NNW) 3,191 5.4 -4.1°
